TimeEST,TemperatureF,Dew PointF,Humidity,Sea Level PressureIn,VisibilityMPH,Wind Direction,Wind SpeedMPH,Gust SpeedMPH,PrecipitationIn,Events,Conditions,WindDirDegrees,DateUTC
12:55 AM,33.8,21.2,60,30.24,10.0,NE,4.6,-,N/A,,Clear,40,2013-02-10 05:55:00
1:15 AM,33.8,21.2,60,30.24,10.0,NE,5.8,-,N/A,,Clear,40,2013-02-10 06:15:00
1:35 AM,33.8,21.2,60,30.25,10.0,NE,6.9,-,N/A,,Clear,50,2013-02-10 06:35:00
1:55 AM,33.8,21.2,60,30.25,10.0,NE,6.9,-,N/A,,Clear,50,2013-02-10 06:55:00
2:15 AM,33.8,21.2,60,30.25,10.0,NE,4.6,-,N/A,,Clear,50,2013-02-10 07:15:00
2:35 AM,33.8,21.2,60,30.26,10.0,NE,5.8,-,N/A,,Clear,50,2013-02-10 07:35:00
2:55 AM,35.6,23.0,60,30.25,10.0,ENE,6.9,-,N/A,,Clear,70,2013-02-10 07:55:00
3:15 AM,35.6,23.0,60,30.24,10.0,ENE,6.9,-,N/A,,Clear,70,2013-02-10 08:15:00
3:35 AM,35.6,23.0,60,30.24,10.0,ENE,6.9,-,N/A,,Clear,70,2013-02-10 08:35:00
3:55 AM,35.6,23.0,60,30.24,10.0,ENE,6.9,-,N/A,,Clear,70,2013-02-10 08:55:00
4:15 AM,37.4,23.0,56,30.23,10.0,East,4.6,-,N/A,,Clear,80,2013-02-10 09:15:00
4:35 AM,37.4,23.0,56,30.24,10.0,ENE,4.6,-,N/A,,Clear,70,2013-02-10 09:35:00
4:55 AM,39.2,21.2,49,30.24,10.0,ENE,5.8,-,N/A,,Clear,70,2013-02-10 09:55:00
5:15 AM,39.2,21.2,49,30.24,10.0,East,4.6,-,N/A,,Clear,80,2013-02-10 10:15:00
5:35 AM,39.2,21.2,49,30.24,10.0,East,4.6,-,N/A,,Clear,80,2013-02-10 10:35:00
5:55 AM,41.0,21.2,45,30.24,10.0,East,5.8,-,N/A,,Clear,80,2013-02-10 10:55:00
6:15 AM,39.2,21.2,49,30.25,10.0,East,4.6,-,N/A,,Clear,100,2013-02-10 11:15:00
6:35 AM,39.2,21.2,49,30.26,10.0,East,4.6,-,N/A,,Partly Cloudy,80,2013-02-10 11:35:00
6:55 AM,39.2,19.4,45,30.28,10.0,ENE,3.5,-,N/A,,Clear,70,2013-02-10 11:55:00
7:15 AM,39.2,21.2,49,30.28,10.0,East,5.8,-,N/A,,Clear,80,2013-02-10 12:15:00
7:35 AM,39.2,21.2,49,30.28,10.0,East,5.8,-,N/A,,Scattered Clouds,100,2013-02-10 12:35:00
7:55 AM,41.0,19.4,42,30.27,10.0,East,6.9,-,N/A,Rain,Light Rain,80,2013-02-10 12:55:00
8:15 AM,42.8,19.4,39,30.26,10.0,East,6.9,-,N/A,,Clear,100,2013-02-10 13:15:00
8:35 AM,44.6,19.4,37,30.27,10.0,East,6.9,-,N/A,,Clear,90,2013-02-10 13:35:00
8:55 AM,48.2,17.6,30,30.28,10.0,East,8.1,-,N/A,,Clear,90,2013-02-10 13:55:00
9:15 AM,48.2,15.8,27,30.28,10.0,East,9.2,-,N/A,,Clear,90,2013-02-10 14:15:00
9:35 AM,48.2,17.6,30,30.28,10.0,East,8.1,-,N/A,,Clear,80,2013-02-10 14:35:00
9:55 AM,48.2,15.8,27,30.27,10.0,ENE,10.4,-,N/A,,Clear,70,2013-02-10 14:55:00
10:15 AM,50.0,17.6,28,30.27,10.0,East,9.2,-,N/A,,Clear,80,2013-02-10 15:15:00
10:35 AM,50.0,17.6,28,30.27,10.0,ENE,6.9,-,N/A,,Clear,70,2013-02-10 15:35:00
10:55 AM,51.8,17.6,26,30.27,10.0,East,9.2,-,N/A,,Clear,90,2013-02-10 15:55:00
11:15 AM,51.8,15.8,24,30.25,10.0,ENE,9.2,-,N/A,,Clear,60,2013-02-10 16:15:00
11:35 AM,51.8,15.8,24,30.24,10.0,East,9.2,-,N/A,,Clear,80,2013-02-10 16:35:00
11:55 AM,53.6,15.8,22,30.22,10.0,East,13.8,-,N/A,,Clear,90,2013-02-10 16:55:00
12:15 PM,55.4,15.8,21,30.20,10.0,ESE,10.4,-,N/A,,Clear,110,2013-02-10 17:15:00
12:35 PM,55.4,14.0,20,30.20,10.0,East,9.2,-,N/A,,Clear,80,2013-02-10 17:35:00
12:55 PM,55.4,15.8,21,30.18,10.0,Variable,5.8,-,N/A,,Clear,0,2013-02-10 17:55:00
1:15 PM,57.2,15.8,20,30.17,10.0,ESE,8.1,-,N/A,,Clear,120,2013-02-10 18:15:00
1:35 PM,57.2,12.2,17,30.15,10.0,SE,8.1,-,N/A,,Clear,130,2013-02-10 18:35:00
1:55 PM,57.2,14.0,18,30.13,10.0,ESE,11.5,-,N/A,,Clear,110,2013-02-10 18:55:00
2:15 PM,57.2,15.8,20,30.13,10.0,ESE,9.2,-,N/A,,Clear,110,2013-02-10 19:15:00
2:35 PM,57.2,12.2,17,30.14,10.0,ESE,10.4,-,N/A,,Partly Cloudy,120,2013-02-10 19:35:00
2:55 PM,55.4,15.8,21,30.14,10.0,ESE,8.1,-,N/A,,Partly Cloudy,120,2013-02-10 19:55:00
3:15 PM,55.4,14.0,20,30.13,10.0,ESE,9.2,-,N/A,,Partly Cloudy,110,2013-02-10 20:15:00
3:35 PM,55.4,15.8,21,30.11,10.0,ESE,10.4,-,N/A,,Partly Cloudy,110,2013-02-10 20:35:00
3:55 PM,55.4,15.8,21,30.10,10.0,East,9.2,-,N/A,,Clear,80,2013-02-10 20:55:00
4:15 PM,53.6,14.0,21,30.11,10.0,East,9.2,-,N/A,,Clear,90,2013-02-10 21:15:00
4:35 PM,53.6,12.2,19,30.13,10.0,Variable,4.6,-,N/A,,Partly Cloudy,0,2013-02-10 21:35:00
4:55 PM,53.6,17.6,24,30.13,10.0,SSE,4.6,-,N/A,,Clear,160,2013-02-10 21:55:00
5:15 PM,51.8,19.4,28,30.13,10.0,Calm,Calm,-,N/A,,Clear,0,2013-02-10 22:15:00
5:35 PM,51.8,21.2,30,30.15,10.0,Calm,Calm,-,N/A,,Partly Cloudy,0,2013-02-10 22:35:00
5:55 PM,51.8,24.8,35,30.16,10.0,Calm,Calm,-,N/A,,Mostly Cloudy,0,2013-02-10 22:55:00
6:15 PM,51.8,26.6,38,30.16,10.0,Calm,Calm,-,N/A,Rain,Light Rain,0,2013-02-10 23:15:00
6:35 PM,46.4,32.0,57,30.17,10.0,ESE,8.1,-,N/A,Rain,Light Rain,120,2013-02-10 23:35:00
6:55 PM,42.8,35.6,76,30.17,6.0,ENE,11.5,-,N/A,Rain,Rain,60,2013-02-10 23:55:00
7:15 PM,42.8,37.4,81,30.16,5.0,ENE,11.5,-,N/A,Rain,Heavy Rain,60,2013-02-11 00:15:00
7:35 PM,42.8,37.4,81,30.15,7.0,ENE,9.2,-,N/A,Rain,Light Rain,60,2013-02-11 00:35:00
7:55 PM,42.8,37.4,81,30.14,9.0,East,9.2,-,N/A,Rain,Rain,80,2013-02-11 00:55:00
8:15 PM,42.8,37.4,81,30.11,10.0,ENE,8.1,-,N/A,,Light Drizzle,60,2013-02-11 01:15:00
8:35 PM,44.6,37.4,76,30.07,10.0,ENE,11.5,-,N/A,,Mostly Cloudy,60,2013-02-11 01:35:00
8:55 PM,46.4,37.4,71,30.09,10.0,ENE,10.4,-,N/A,,Partly Cloudy,60,2013-02-11 01:55:00
9:15 PM,46.4,37.4,71,30.10,10.0,ENE,10.4,-,N/A,,Scattered Clouds,60,2013-02-11 02:15:00
9:35 PM,46.4,37.4,71,30.08,10.0,ENE,10.4,-,N/A,,Partly Cloudy,60,2013-02-11 02:35:00
9:55 PM,46.4,39.2,76,30.07,10.0,ENE,8.1,-,N/A,,Clear,60,2013-02-11 02:55:00
10:15 PM,46.4,39.2,76,30.07,10.0,ENE,6.9,-,N/A,,Clear,60,2013-02-11 03:15:00
10:35 PM,48.2,39.2,71,30.05,10.0,NE,9.2,-,N/A,,Clear,50,2013-02-11 03:35:00
10:55 PM,48.2,39.2,71,30.04,10.0,ENE,8.1,-,N/A,,Clear,60,2013-02-11 03:55:00
11:15 PM,48.2,41.0,76,30.03,10.0,ENE,5.8,-,N/A,,Clear,70,2013-02-11 04:15:00
11:35 PM,50.0,41.0,71,30.01,10.0,NE,8.1,-,N/A,,Clear,50,2013-02-11 04:35:00
11:55 PM,50.0,41.0,71,30.03,10.0,Variable,4.6,-,N/A,,Clear,0,2013-02-11 04:55:00